Regional Weather Roundup
Issued by NWS

Home | Current Version | Previous Version | Graphics & Text | Print | Product List | Glossary Off
Versions: 1 2 3 4 5 6 7 8 9 10 11 12 13 14 15 16 17 18 19 20 21 22 23 24 25 26 27 28 29 30 31 32 33 34 35 36 37 38 39 40 41 42 43 44 45 46 47 48 49 50

000
ASUS43 KDTX 101101
RWRMI
MICHIGAN HOURLY REGIONAL WEATHER ROUNDUP
NATIONAL WEATHER SERVICE DETROIT/PONTIAC MI
700 AM EDT THU JUL 10 2014

NOTE: "FAIR" INDICATES FEW OR NO CLOUDS BELOW 12,000 FEET WITH NO
SIGNIFICANT WEATHER AND/OR OBSTRUCTION TO VISIBILITY.

MIZ047>049-052>055-059>063-066>070-074>076-081>083-101200-
SOUTHEAST LOWER MICHIGAN

CITY           SKY/WX    TMP DP  RH WIND       PRES   REMARKS
ADRIAN         CLEAR     57  54  89 N6        30.11R
ALMA           PTCLDY    54  51  89 N3        30.14R
ANN ARBOR      MOCLDY    59  54  83 N5        30.10R
BAD AXE        CLEAR     55  53  95 CALM      30.13R
CARO           PTCLDY    58  57  97 N5        30.12R
DETROIT CITY   CLEAR     63  54  72 N3        30.09R
DETROIT        PTCLDY    61  56  83 NW5       30.10R
FLINT          CLEAR     58  54  86 N3        30.11R
GROSSE ILE     CLEAR     61  57  88 NW5       30.08R
HILLSDALE      CLEAR     55  55  99 CALM      30.12R
HOWELL         CLEAR     55  53  96 CALM      30.11R

CITY           SKY/WX    TMP DP  RH WIND       PRES   REMARKS
JACKSON        CLEAR     54  52  93 CALM      30.12R
LAMBERTVILLE   CLEAR     59  54  82 CALM      30.10R
LANSING        CLEAR     54  52  93 N3        30.13R
LAPEER         FAIR      55  54  96 CALM      30.12R
MASON          CLEAR     54  52  94 CALM      30.12R
MONROE         CLEAR     55  54  94 CALM      30.07R
MT. CLEMENS    CLEAR     56  56  99 NW2       30.09R
PONTIAC        MOCLDY    59  55  87 NW6       30.10R
PORT HOPE        N/A     55  53  93 CALM      30.11R
PORT HURON     CLEAR     52  52 100 CALM      30.11R FOG
TRI CITIES     CLEAR     56  51  84 N8        30.14R
TROY           PTCLDY    61  57  86 CALM      30.11R
SAGINAW HB     CLEAR     55  55 100 NW6       30.12R
$$
MIZ043>046-050>051-056>058-064>065-071>073-077>080-101200-
SOUTHWEST LOWER MICHIGAN

CITY           SKY/WX    TMP DP  RH WIND       PRES   REMARKS
BATTLE CREEK   CLEAR     55  52  89 CALM      30.14R
BENTON HARBOR  CLEAR     53  52  96 CALM      30.14R
BIG RAPIDS     CLEAR     49  49 100 CALM      30.15R
COLDWATER      CLEAR     55  53  93 CALM      30.13R
FREMONT        FAIR      50  50 100 CALM      30.15R
HOLLAND        CLEAR     56  53  90 CALM      30.15R
GRAND RAPIDS   PTCLDY    57  53  86 N3        30.14R
IONIA          FAIR      55  52  90 N3        30.13R
KALAMAZOO      CLEAR     53  51  93 N6        30.14R
LUDINGTON      CLEAR     47  46  97 CALM      30.16R FOG
MARSHALL       CLEAR     51  51  97 CALM      30.13R
MOUNT PLEASANT CLEAR     53  51  96 CALM      30.14R
MUSKEGON       CLEAR     55  51  86 CALM      30.15R
SOUTH HAVEN    CLEAR     54  53  99 CALM      30.14R
$$
MIZ016>042-101200-
NORTHERN LOWER MICHIGAN

CITY           SKY/WX    TMP DP  RH WIND       PRES   REMARKS
ALPENA         MOCLDY    50  48  93 W3        30.16R
BEAVER ISLAND  CLEAR     43  43 100 CALM      30.15R
BELLAIRE       MOCLDY    45  44  97 CALM      30.15S
CADILLAC       FOG       42  41  96 CALM      30.15R VSB 1
CHARLEVOIX     CLEAR     49  48  97 CALM      30.18R
FRANKFORT      CLEAR     46  43  88 CALM      30.15R
GAYLORD        CLEAR     43  41  93 CALM      30.15R
GRAYLING       PTCLDY    40  40 100 CALM      30.16R FOG
HARBOR SPRINGS CLEAR     47  46  95 CALM      30.14S
HOUGHTON LAKE  PTCLDY    41  41 100 CALM      30.16R FOG
MANISTEE       CLOUDY    45  43  93 CALM      30.16R VSB<1/4
OSCODA         PTCLDY    51  49  93 N3        30.14R
PELLSTON       CLEAR     43  41  93 CALM      30.15R
ROGERS CITY    PTCLDY    50  49  96 SW5       30.15R
TRAVERSE CITY  CLEAR     49  47  93 CALM      30.14R
$$
MIZ007>008-015-101200-
EASTERN UPPER MICHIGAN

CITY           SKY/WX    TMP DP  RH WIND       PRES   REMARKS
KINROSS        CLEAR     45  45 100 W3        30.14R
MACKINAC ISLAN CLEAR     50  49  97 NW5       30.14R
NEWBERRY       CLEAR     44  43  98 CALM      30.14R
S. S. MARIE    CLEAR     46  44  93 CALM      30.13R
$$
MIZ004>006-011>014-085-101200-
CENTRAL UPPER MICHIGAN

CITY           SKY/WX    TMP DP  RH WIND       PRES   REMARKS
MANISTIQUE     CLEAR     41  40  95 CALM      30.14R
ESCANABA       PTCLDY    45  43  93 NW3       30.14R
MENOMINEE      CLEAR     48  46  93 CALM      30.13R
SAWYER-GWINN   CLEAR     43  41  93 CALM      30.13R
$$
MIZ001>003-009>011-084-101200-
WESTERN UPPER MICHIGAN

CITY           SKY/WX    TMP DP  RH WIND       PRES   REMARKS
IRON MOUNTAIN  PTCLDY    43  41  93 CALM      30.13R
HOUGHTON       CLEAR     47  42  83 W3        30.09R
COPPER HARBOR    N/A     54  46  74 NW3       30.08R
$$

ABBREVIATIONS USED IN REMARKS
   TC - TEMPERATURE IN CELSIUS
  WCI - WIND CHILL INDEX
   HX - HEAT INDEX
  VSB - VISIBILITY



USA.gov is the U.S. government's official web portal to all federal, state and local government web resources and services.